Showing default

HULIANWANG DIGUI-21, 63688

Orbit data source: Space-Track

HULIANWANG DIGUI-21, 63688 is a payload satellite owned by Zhongguo Xingwang (CN) in LEO that was launched on Mon, 28 Apr 2025 UTC via a CHANG ZHENG 5B/YZ-2 launch vehicle from the Wenchang Satellite Launch Center (WSC). Payload-class satellites include a variety of spacecraft equipped with specific instruments for various scientific and technological missions. These include communications satellites like Starlink; space stations such as the ISS; scientific satellites like the Hubble; Earth observation satellites from companies like Planet Labs, Umbra, and HawkEye 360; GPS; miniature CubeSats for education and research; and military/defense satellites.

Loading next visibility...
Identifier
63688, 2025-086B
Orbit
LEO
Country
Flag of CNCN / PRC
Related business
Manufacturer
CAST?
Mission
Operational Civil Communications
Bus & Motor
XINGWANG CL, Unknown motor
Mass
~800 kg wet, ~800 kg dry
Launch date (UTC)
2025-04-28 (1 year ago)
Launch vehicle
CHANG ZHENG 5B/YZ-2
Launch site
Wenchang Satellite Launch Center (WSC)
Object type
Payload
Rocket body
Debris
Shape & HBR
Box + 2 Pan, 5.0 m
Radar Cross Section
5.935 m², Large (>1 m²)

Expand to show TLE details & history
Last TLE update: 10 hours ago

TLE from 10 hours ago
0 HULIANWANG DIGUI-21
1 63688U 25086B   26171.43199850  .00000044  00000-0  69415-4 0  9995
2 63688  86.5080 312.0977 0001354 107.3447 252.7835 13.24409088 55290
Epoch: 2026-06-20T10:22Z
TLE epoch observation values (Epoch: 2026-06-20T10:22:04.670Z)
Latitude
-0.00004°
Longitude
-112.06847°
Altitude
1,171.123 km
Speed
7.268 km/s
True Right ascension
20h 48m 23s
True Declination
0° 00' 00"
Sunlit
Object was in full shadow at epoch
Visualization orbit readout
Latitude
Unknown
Longitude
Unknown
Altitude
Unknown
Speed
Unknown
Apparent Right ascension
Unknown
Apparent Declination
Unknown
Sunlit
N/A
Visualization observer readout
Local Sidereal Time
07:18:21
Azimuth
Unknown
Elevation
Unknown
Doppler factor
Unknown
Orbital elements
Apogee altitude
1,166.067 km
Perigee altitude
1,164.024 km
Semi-major axis
7,543.182 km
Eccentricity
0.00014
Inclination
86.508°
RAAN
312.0977°
Arg. of periapsis
107.3447°
True anomaly
252.76868°
Mean anomaly
252.7835°
Eccentric anomaly
252.77609°
Mean motion
3.31292 °/min
Orbital period
108.67 mins
BSTAR
0.000069415
Loading maneuver chart data...
Computing Atmospheric mass density...
Loading historical data...
Loading historical data...
Loading historical data...
Loading historical data...
Loading historical data...
Loading historical data...
Loading historical data...

Documentation

Showing up to 5 results
|